Time,TemperatureF,DewpointF,PressureIn,WindDirection,WindDirectionDegrees,WindSpeedMPH,WindSpeedGustMPH,Humidity,HourlyPrecipIn,Conditions,Clouds,dailyrainin,SolarRadiationWatts/m^2,SoftwareType,DateUTC
2013-11-30 00:08:00,36.3,35.0,30.50,NNE,31,0.0,3.0,96,0.00,,,0.00,0,weatherlink.com 1.10,2013-11-30 05:08:00,
2013-11-30 00:23:00,36.6,35.0,30.50,NE,40,0.0,1.0,94,0.00,,,0.00,0,weatherlink.com 1.10,2013-11-30 05:23:00,
2013-11-30 00:38:00,36.7,35.0,30.50,NNW,347,0.0,2.0,93,0.00,,,0.00,0,weatherlink.com 1.10,2013-11-30 05:38:00,
2013-11-30 00:53:00,36.8,35.0,30.49,East,80,0.0,1.0,92,0.00,,,0.00,0,weatherlink.com 1.10,2013-11-30 05:53:00,
2013-11-30 01:08:00,37.0,35.0,30.49,ENE,58,0.0,2.0,91,0.00,,,0.00,0,weatherlink.com 1.10,2013-11-30 06:08:00,
2013-11-30 01:23:00,37.3,34.0,30.49,NE,35,0.0,2.0,89,0.00,,,0.00,0,weatherlink.com 1.10,2013-11-30 06:23:00,
2013-11-30 01:38:00,37.3,34.0,30.49,NE,35,2.0,4.0,88,0.00,,,0.00,0,weatherlink.com 1.10,2013-11-30 06:38:00,
2013-11-30 01:53:00,37.4,34.0,30.49,NNE,27,0.0,1.0,87,0.00,,,0.00,0,weatherlink.com 1.10,2013-11-30 06:53:00,
2013-11-30 02:08:00,37.5,34.0,30.49,NE,50,1.0,1.0,88,0.00,,,0.00,0,weatherlink.com 1.10,2013-11-30 07:08:00,
2013-11-30 02:23:00,37.4,34.0,30.50,NNE,27,1.0,5.0,88,0.00,,,0.00,0,weatherlink.com 1.10,2013-11-30 07:23:00,
2013-11-30 02:38:00,37.4,34.0,30.50,ENE,73,0.0,7.0,88,0.00,,,0.00,0,weatherlink.com 1.10,2013-11-30 07:38:00,
2013-11-30 02:53:00,37.3,34.0,30.49,NNE,25,0.0,4.0,89,0.00,,,0.00,0,weatherlink.com 1.10,2013-11-30 07:53:00,
2013-11-30 03:08:00,37.2,34.0,30.50,East,79,0.0,5.0,89,0.00,,,0.00,0,weatherlink.com 1.10,2013-11-30 08:08:00,
2013-11-30 03:23:00,37.1,34.0,30.50,ENE,70,0.0,3.0,89,0.00,,,0.00,0,weatherlink.com 1.10,2013-11-30 08:23:00,
2013-11-30 03:38:00,37.1,35.0,30.49,NNE,31,0.0,3.0,90,0.00,,,0.00,0,weatherlink.com 1.10,2013-11-30 08:38:00,
2013-11-30 03:53:00,36.9,34.0,30.50,ESE,104,0.0,6.0,90,0.00,,,0.00,0,weatherlink.com 1.10,2013-11-30 08:53:00,
2013-11-30 04:08:00,36.8,35.0,30.49,NNE,31,0.0,5.0,91,0.00,,,0.00,0,weatherlink.com 1.10,2013-11-30 09:08:00,
2013-11-30 04:23:00,37.2,35.0,30.49,NNE,12,2.0,4.0,91,0.00,,,0.00,0,weatherlink.com 1.10,2013-11-30 09:23:00,
2013-11-30 04:38:00,37.5,35.0,30.49,ENE,67,0.0,5.0,91,0.00,,,0.00,0,weatherlink.com 1.10,2013-11-30 09:38:00,
2013-11-30 04:53:00,37.7,35.0,30.49,East,97,2.0,7.0,89,0.00,,,0.00,0,weatherlink.com 1.10,2013-11-30 09:53:00,
2013-11-30 05:08:00,37.8,35.0,30.49,NNE,31,3.0,6.0,89,0.00,,,0.00,0,weatherlink.com 1.10,2013-11-30 10:08:00,
2013-11-30 05:23:00,37.9,35.0,30.50,NNE,27,2.0,7.0,88,0.00,,,0.00,0,weatherlink.com 1.10,2013-11-30 10:23:00,
2013-11-30 05:38:00,37.8,35.0,30.49,North,355,5.0,5.0,88,0.00,,,0.00,0,weatherlink.com 1.10,2013-11-30 10:38:00,
2013-11-30 05:53:00,37.7,35.0,30.49,NNE,25,3.0,6.0,88,0.00,,,0.00,0,weatherlink.com 1.10,2013-11-30 10:53:00,
2013-11-30 06:08:00,37.7,35.0,30.50,NNE,23,1.0,11.0,88,0.00,,,0.00,0,weatherlink.com 1.10,2013-11-30 11:08:00,
2013-11-30 06:23:00,37.5,34.0,30.50,East,98,2.0,7.0,87,0.00,,,0.00,0,weatherlink.com 1.10,2013-11-30 11:23:00,
2013-11-30 06:38:00,37.3,34.0,30.50,SW,225,1.0,5.0,88,0.00,,,0.00,0,weatherlink.com 1.10,2013-11-30 11:38:00,
2013-11-30 06:53:00,37.1,34.0,30.50,ENE,66,0.0,6.0,88,0.00,,,0.00,0,weatherlink.com 1.10,2013-11-30 11:53:00,
2013-11-30 07:08:00,36.8,34.0,30.52,NNE,25,1.0,6.0,88,0.00,,,0.00,0,weatherlink.com 1.10,2013-11-30 12:08:00,
2013-11-30 07:23:00,36.2,33.0,30.52,ENE,77,0.0,8.0,88,0.00,,,0.00,9,weatherlink.com 1.10,2013-11-30 12:23:00,
2013-11-30 07:38:00,35.7,33.0,30.52,East,88,3.0,6.0,89,0.00,,,0.00,14,weatherlink.com 1.10,2013-11-30 12:38:00,
2013-11-30 07:53:00,35.5,33.0,30.52,ENE,62,1.0,5.0,90,0.00,,,0.00,19,weatherlink.com 1.10,2013-11-30 12:53:00,
2013-11-30 08:08:00,35.8,33.0,30.52,NE,50,6.0,6.0,89,0.00,,,0.00,23,weatherlink.com 1.10,2013-11-30 13:08:00,
2013-11-30 08:23:00,36.3,33.0,30.52,SE,140,2.0,5.0,89,0.00,,,0.00,26,weatherlink.com 1.10,2013-11-30 13:23:00,
2013-11-30 08:38:00,36.9,34.0,30.53,ENE,65,1.0,4.0,88,0.00,,,0.00,33,weatherlink.com 1.10,2013-11-30 13:38:00,
2013-11-30 08:53:00,37.5,34.0,30.53,ENE,59,2.0,6.0,88,0.00,,,0.00,98,weatherlink.com 1.10,2013-11-30 13:53:00,
2013-11-30 09:08:00,38.9,35.0,30.52,SSE,148,2.0,6.0,87,0.00,,,0.00,297,weatherlink.com 1.10,2013-11-30 14:08:00,
2013-11-30 09:23:00,40.6,36.0,30.53,East,81,1.0,4.0,84,0.00,,,0.00,338,weatherlink.com 1.10,2013-11-30 14:23:00,
2013-11-30 09:38:00,41.4,36.0,30.52,East,98,0.0,7.0,82,0.00,,,0.00,373,weatherlink.com 1.10,2013-11-30 14:38:00,
2013-11-30 09:53:00,42.7,37.0,30.53,NE,40,1.0,6.0,80,0.00,,,0.00,373,weatherlink.com 1.10,2013-11-30 14:53:00,
2013-11-30 10:08:00,43.3,38.0,30.53,ENE,62,0.0,6.0,80,0.00,,,0.00,450,weatherlink.com 1.10,2013-11-30 15:08:00,
2013-11-30 10:23:00,44.4,38.0,30.52,ENE,69,1.0,6.0,79,0.00,,,0.00,466,weatherlink.com 1.10,2013-11-30 15:23:00,
2013-11-30 10:38:00,46.0,39.0,30.52,ESE,102,2.0,4.0,77,0.00,,,0.00,543,weatherlink.com 1.10,2013-11-30 15:38:00,
2013-11-30 10:53:00,46.6,39.0,30.52,SE,141,0.0,6.0,76,0.00,,,0.00,575,weatherlink.com 1.10,2013-11-30 15:53:00,
2013-11-30 11:08:00,48.3,40.0,30.51,NNE,30,1.0,5.0,74,0.00,,,0.00,297,weatherlink.com 1.10,2013-11-30 16:08:00,
2013-11-30 11:23:00,49.8,41.0,30.50,West,260,1.0,4.0,71,0.00,,,0.00,566,weatherlink.com 1.10,2013-11-30 16:23:00,
2013-11-30 11:38:00,50.3,41.0,30.48,East,99,2.0,4.0,71,0.00,,,0.00,555,weatherlink.com 1.10,2013-11-30 16:38:00,
2013-11-30 11:53:00,50.8,41.0,30.47,ESE,116,3.0,5.0,70,0.00,,,0.00,552,weatherlink.com 1.10,2013-11-30 16:53:00,
2013-11-30 12:08:00,51.9,41.0,30.46,SSE,166,0.0,6.0,67,0.00,,,0.00,555,weatherlink.com 1.10,2013-11-30 17:08:00,
2013-11-30 12:23:00,53.3,42.0,30.46,NNE,31,0.0,4.0,65,0.00,,,0.00,533,weatherlink.com 1.10,2013-11-30 17:23:00,
2013-11-30 12:39:00,54.3,41.0,30.46,ENE,71,0.0,5.0,62,0.00,,,0.00,534,weatherlink.com 1.10,2013-11-30 17:39:00,
2013-11-30 12:54:00,55.0,42.0,30.45,West,278,2.0,5.0,61,0.00,,,0.00,499,weatherlink.com 1.10,2013-11-30 17:54:00,
2013-11-30 13:09:00,56.0,42.0,30.45,ESE,108,0.0,8.0,60,0.00,,,0.00,533,weatherlink.com 1.10,2013-11-30 18:09:00,
2013-11-30 13:24:00,56.7,42.0,30.44,NNW,343,3.0,7.0,58,0.00,,,0.00,494,weatherlink.com 1.10,2013-11-30 18:24:00,
2013-11-30 13:39:00,57.0,42.0,30.43,NE,50,1.0,6.0,57,0.00,,,0.00,490,weatherlink.com 1.10,2013-11-30 18:39:00,
2013-11-30 13:54:00,57.0,42.0,30.43,East,97,1.0,6.0,58,0.00,,,0.00,355,weatherlink.com 1.10,2013-11-30 18:54:00,
2013-11-30 14:09:00,57.0,42.0,30.43,NE,36,0.0,9.0,58,0.00,,,0.00,318,weatherlink.com 1.10,2013-11-30 19:09:00,
2013-11-30 14:24:00,57.2,43.0,30.42,NNW,334,0.0,4.0,59,0.00,,,0.00,413,weatherlink.com 1.10,2013-11-30 19:24:00,
2013-11-30 14:39:00,57.5,43.0,30.41,ESE,110,1.0,4.0,58,0.00,,,0.00,362,weatherlink.com 1.10,2013-11-30 19:39:00,
2013-11-30 14:54:00,57.0,42.0,30.39,East,97,0.0,4.0,58,0.00,,,0.00,313,weatherlink.com 1.10,2013-11-30 19:54:00,
2013-11-30 15:09:00,57.3,43.0,30.38,ESE,113,0.0,3.0,59,0.00,,,0.00,267,weatherlink.com 1.10,2013-11-30 20:09:00,
2013-11-30 15:24:00,56.9,43.0,30.38,North,356,1.0,3.0,60,0.00,,,0.00,128,weatherlink.com 1.10,2013-11-30 20:24:00,
2013-11-30 15:39:00,56.0,43.0,30.39,East,84,0.0,1.0,61,0.00,,,0.00,72,weatherlink.com 1.10,2013-11-30 20:39:00,
2013-11-30 15:54:00,55.3,43.0,30.39,ENE,77,0.0,3.0,63,0.00,,,0.00,30,weatherlink.com 1.10,2013-11-30 20:54:00,
2013-11-30 16:09:00,54.5,44.0,30.38,West,266,0.0,2.0,67,0.00,,,0.00,37,weatherlink.com 1.10,2013-11-30 21:09:00,
2013-11-30 16:24:00,53.8,44.0,30.39,ENE,69,0.0,1.0,69,0.00,,,0.00,47,weatherlink.com 1.10,2013-11-30 21:24:00,
2013-11-30 16:39:00,53.3,44.0,30.39,North,354,0.0,2.0,71,0.00,,,0.00,11,weatherlink.com 1.10,2013-11-30 21:39:00,
2013-11-30 16:54:00,52.8,44.0,30.38,NNW,343,0.0,1.0,72,0.00,,,0.00,9,weatherlink.com 1.10,2013-11-30 21:54:00,
2013-11-30 17:09:00,52.3,44.0,30.39,NNW,329,0.0,1.0,72,0.00,,,0.00,0,weatherlink.com 1.10,2013-11-30 22:09:00,
2013-11-30 17:24:00,51.4,43.0,30.39,NNW,329,0.0,0.0,73,0.00,,,0.00,0,weatherlink.com 1.10,2013-11-30 22:24:00,
2013-11-30 17:39:00,50.4,43.0,30.38,NNW,329,0.0,0.0,76,0.00,,,0.00,0,weatherlink.com 1.10,2013-11-30 22:39:00,
2013-11-30 17:54:00,49.2,43.0,30.38,NNW,329,0.0,0.0,79,0.00,,,0.00,0,weatherlink.com 1.10,2013-11-30 22:54:00,
2013-11-30 18:09:00,48.1,43.0,30.38,NNW,329,0.0,0.0,82,0.00,,,0.00,0,weatherlink.com 1.10,2013-11-30 23:09:00,
2013-11-30 18:24:00,47.1,43.0,30.38,ENE,60,0.0,3.0,85,0.00,,,0.00,0,weatherlink.com 1.10,2013-11-30 23:24:00,
2013-11-30 18:39:00,46.6,42.0,30.38,NE,56,0.0,1.0,85,0.00,,,0.00,0,weatherlink.com 1.10,2013-11-30 23:39:00,
2013-11-30 18:54:00,46.3,42.0,30.38,North,10,0.0,0.0,84,0.00,,,0.00,0,weatherlink.com 1.10,2013-11-30 23:54:00,
2013-11-30 19:09:00,45.9,41.0,30.37,NE,36,0.0,0.0,84,0.00,,,0.00,0,weatherlink.com 1.10,2013-12-01 00:09:00,
2013-11-30 19:24:00,45.6,41.0,30.38,NE,36,0.0,0.0,85,0.00,,,0.00,0,weatherlink.com 1.10,2013-12-01 00:24:00,
2013-11-30 19:39:00,45.0,41.0,30.38,NE,36,0.0,1.0,86,0.00,,,0.00,0,weatherlink.com 1.10,2013-12-01 00:39:00,
2013-11-30 19:54:00,44.4,41.0,30.38,NE,36,0.0,0.0,87,0.00,,,0.00,0,weatherlink.com 1.10,2013-12-01 00:54:00,
2013-11-30 20:09:00,43.9,41.0,30.37,NE,36,0.0,0.0,89,0.00,,,0.00,0,weatherlink.com 1.10,2013-12-01 01:09:00,
2013-11-30 20:24:00,43.7,41.0,30.37,NE,36,0.0,0.0,90,0.00,,,0.00,0,weatherlink.com 1.10,2013-12-01 01:24:00,
2013-11-30 20:39:00,43.5,41.0,30.37,NE,36,0.0,0.0,91,0.00,,,0.00,0,weatherlink.com 1.10,2013-12-01 01:39:00,
2013-11-30 20:54:00,43.1,41.0,30.37,NE,36,0.0,0.0,91,0.00,,,0.00,0,weatherlink.com 1.10,2013-12-01 01:54:00,
2013-11-30 21:09:00,42.9,41.0,30.37,NE,36,0.0,0.0,92,0.00,,,0.00,0,weatherlink.com 1.10,2013-12-01 02:09:00,
2013-11-30 21:24:00,42.9,41.0,30.36,NE,36,0.0,0.0,93,0.00,,,0.00,0,weatherlink.com 1.10,2013-12-01 02:24:00,
2013-11-30 21:40:00,42.7,41.0,30.36,NE,36,0.0,0.0,93,0.00,,,0.00,0,weatherlink.com 1.10,2013-12-01 02:40:00,
2013-11-30 21:55:00,42.4,41.0,30.36,NE,36,0.0,0.0,93,0.00,,,0.00,0,weatherlink.com 1.10,2013-12-01 02:55:00,
2013-11-30 22:10:00,42.0,40.0,30.36,NE,36,0.0,0.0,94,0.00,,,0.00,0,weatherlink.com 1.10,2013-12-01 03:10:00,